Date String (YYYY-MM-DD hh:mm:ss) UTC,Instrument flags,absolute air pressure of the measurement (hPa),sample flow rate (lpm),inlet stack bypass flow (lpm),air temperature of the measurement (°C),ambient temperature measured by the external sensor (°C),aerosol sample conditioner tube jacket temperature (°C),OPC LED temperature (°C),internal box temperature (°C),relative humidity of the measurement (%),span deviation,mass concentration of particles derived from Lorenz-Mie calculation of OPC scattering (μg/m³),mass concentration of particles derived from Lorenz-Mie calculation of OPC scattering (μg/m³),mass concentration of particles derived from Lorenz-Mie calculation of OPC scattering (μg/m³)
DateTimeUTC,F1_M11,P_M11,Q1_M11,Q2_M11,T1_M11,T2_M11,T3_M11,T4_M11,T5_M11,U1_M11,ZSPAN_M11,X0_M11,X2_M11,X1_M11
2024-04-20 11:00:00,SystemResetWarning,0835.8,4.99,000.00,019.0,018.4,000.0,027.5,020.7,022.6,0000.2,0009.75,0008.07,0007.75
2024-04-20 11:01:00,SystemResetWarning,0835.8,5.00,000.00,019.0,018.4,000.0,027.5,020.7,022.5,0000.4,0009.66,0008.07,0007.78
2024-04-20 11:02:00,SystemResetWarning,0835.8,5.00,000.00,019.0,018.4,000.0,027.5,020.7,022.5,0000.8,0009.58,0008.04,0007.78
2024-04-20 11:03:00,SystemResetWarning,0835.8,5.00,000.00,019.0,018.4,000.0,027.5,020.7,022.5,0001.2,0009.52,0008.03,0007.77
2024-04-20 11:04:00,SystemResetWarning,0835.7,5.01,000.00,019.0,018.4,000.0,027.5,020.7,022.5,0001.7,0009.51,0008.00,0007.75
2024-04-20 11:05:00,SystemResetWarning,0835.6,4.99,000.00,019.0,018.4,000.0,027.5,020.7,022.5,0002.2,0009.49,0007.97,0007.72
2024-04-20 11:06:00,SystemResetWarning,0835.5,4.99,000.00,019.0,018.4,000.0,027.5,020.7,022.5,0002.8,0009.51,0007.97,0007.70
2024-04-20 11:07:00,SystemResetWarning,0835.6,5.00,000.00,019.0,018.4,000.0,027.5,020.7,022.5,0002.9,0009.46,0007.97,0007.70
2024-04-20 11:08:00,SystemResetWarning,0835.5,5.00,000.00,019.0,018.4,000.0,027.5,020.7,022.5,0002.7,0009.49,0008.00,0007.73
2024-04-20 11:09:00,SystemResetWarning,0835.6,5.01,000.00,019.0,018.4,000.0,027.5,020.7,022.5,0002.3,0009.47,0008.00,0007.73
2024-04-20 11:10:00,SystemResetWarning,0835.6,5.00,000.00,019.0,018.4,000.0,027.5,020.7,022.5,0002.4,0009.49,0007.99,0007.73
2024-04-20 11:11:00,SystemResetWarning,0835.6,5.00,000.00,019.0,018.4,000.0,027.5,020.7,022.5,0002.8,0009.54,0007.99,0007.72
2024-04-20 11:12:00,SystemResetWarning,0835.5,5.01,000.00,019.0,018.4,000.0,027.5,020.7,022.5,0002.5,0009.57,0007.98,0007.71
2024-04-20 11:13:00,SystemResetWarning,0835.5,5.00,000.00,019.0,018.4,000.0,027.5,020.7,022.4,0002.1,0009.58,0007.99,0007.71
2024-04-20 11:14:00,SystemResetWarning,0835.5,5.00,000.00,019.0,018.4,000.0,027.5,020.7,022.4,0001.7,0009.60,0007.98,0007.72
2024-04-20 11:15:00,SystemResetWarning,0835.6,5.00,000.00,019.0,018.4,000.0,027.5,020.7,022.4,0001.0,0009.57,0007.98,0007.74
2024-04-20 11:16:00,SystemResetWarning,0835.6,4.99,000.00,019.0,018.4,000.0,027.5,020.7,022.4,0000.4,0009.57,0008.00,0007.76
2024-04-20 11:17:00,SystemResetWarning,0835.6,4.99,000.00,019.0,018.4,000.0,027.5,020.7,022.4,0000.7,0009.62,0008.01,0007.76
2024-04-20 11:18:00,SystemResetWarning,0835.6,5.00,000.00,019.0,018.4,000.0,027.5,020.7,022.4,0000.2,0009.67,0008.01,0007.74
2024-04-20 11:19:00,SystemResetWarning,0835.6,4.99,000.00,019.0,018.4,000.0,027.5,020.7,022.4,0000.2,0009.65,0007.98,0007.71
2024-04-20 11:20:00,SystemResetWarning,0835.5,4.99,000.00,019.0,018.4,000.0,027.5,020.7,022.4,0000.8,0009.66,0007.96,0007.67
2024-04-20 11:21:00,SystemResetWarning,0835.5,5.00,000.00,019.0,018.4,000.0,027.5,020.7,022.4,0000.4,0009.62,0007.94,0007.65
2024-04-20 11:22:00,SystemResetWarning,0835.5,5.00,000.00,019.0,018.4,000.0,027.5,020.7,022.4,-000.3,0009.56,0007.92,0007.64
2024-04-20 11:23:00,SystemResetWarning,0835.5,5.00,000.00,019.0,018.4,000.0,027.5,020.7,022.4,-000.0,0009.50,0007.89,0007.61
2024-04-20 11:24:00,SystemResetWarning,0835.5,5.00,000.00,019.0,018.4,000.0,027.5,020.7,022.4,-000.0,0009.46,0007.89,0007.62
2024-04-20 11:25:00,SystemResetWarning,0835.5,5.01,000.00,019.0,018.4,000.0,027.5,020.7,022.5,-000.4,0009.43,0007.89,0007.63
2024-04-20 11:26:00,SystemResetWarning,0835.5,5.01,000.00,019.0,018.4,000.0,027.5,020.7,022.5,0000.0,0009.46,0007.90,0007.64
2024-04-20 11:27:00,SystemResetWarning,0835.6,5.00,000.00,018.9,018.4,000.0,027.5,020.7,022.5,0000.0,0009.46,0007.89,0007.63
2024-04-20 11:28:00,SystemResetWarning,0835.5,5.00,000.00,018.9,018.4,000.0,027.5,020.7,022.4,-000.5,0009.36,0007.85,0007.62
2024-04-20 11:29:00,SystemResetWarning,0835.5,5.00,000.00,018.9,018.4,000.0,027.5,020.7,022.5,-000.0,0009.30,0007.84,0007.61
2024-04-20 11:30:00,SystemResetWarning,0835.5,5.00,000.00,018.9,018.4,000.0,027.5,020.7,023.2,-000.1,0009.25,0007.83,0007.63
2024-04-20 11:31:00,SystemResetWarning,0835.5,5.00,000.00,019.0,018.4,000.0,027.5,020.7,023.6,-000.1,0009.18,0007.81,0007.63
2024-04-20 11:32:00,SystemResetWarning,0835.5,5.00,000.00,018.9,018.4,000.0,027.5,020.7,022.9,0000.0,0009.11,0007.81,0007.65
2024-04-20 11:33:00,SystemResetWarning,0835.5,5.00,000.00,018.9,018.4,000.0,027.5,020.7,022.7,0000.2,0009.17,0007.84,0007.67
2024-04-20 11:34:00,SystemResetWarning,0835.5,5.02,000.00,018.9,018.4,000.0,027.5,020.7,022.6,-000.1,0009.24,0007.88,0007.69
2024-04-20 11:35:00,SystemResetWarning,0835.5,5.00,000.00,018.9,018.4,000.0,027.5,020.7,022.6,-000.2,0009.29,0007.90,0007.70
2024-04-20 11:36:00,SystemResetWarning,0835.5,5.00,000.00,018.9,018.4,000.0,027.5,020.7,022.6,-000.1,0009.30,0007.91,0007.71
2024-04-20 11:37:00,SystemResetWarning,0835.5,4.99,000.00,018.9,018.4,000.0,027.5,020.7,022.6,-000.4,0009.31,0007.90,0007.70
2024-04-20 11:38:00,SystemResetWarning,0835.5,4.99,000.00,018.9,018.4,000.0,027.5,020.7,022.6,0000.7,0009.28,0007.90,0007.69
2024-04-20 11:39:00,SystemResetWarning,0835.5,5.00,000.00,018.9,018.4,000.0,027.5,020.7,022.5,0000.0,0009.31,0007.92,0007.70
2024-04-20 11:40:00,SystemResetWarning,0835.5,5.01,000.00,019.0,018.4,000.0,027.5,020.7,022.5,-000.0,0009.29,0007.92,0007.72
2024-04-20 11:41:00,SystemResetWarning,0835.5,5.00,000.00,018.9,018.4,000.0,027.5,020.7,022.5,-000.4,0009.33,0007.93,0007.72
2024-04-20 11:42:00,SystemResetWarning,0835.5,5.01,000.00,018.9,018.4,000.0,027.5,020.7,022.5,-000.5,0009.38,0007.96,0007.74
2024-04-20 11:43:00,SystemResetWarning,0835.4,5.00,000.00,018.9,018.4,000.0,027.5,020.7,022.5,0000.0,0009.38,0007.96,0007.75
2024-04-20 11:44:00,SystemResetWarning,0835.4,4.98,000.00,018.9,018.4,000.0,027.5,020.7,022.5,-000.1,0009.34,0007.96,0007.76
2024-04-20 11:45:00,SystemResetWarning,0835.4,5.00,000.00,018.9,018.4,000.0,027.4,020.7,022.5,0000.2,0009.36,0007.97,0007.77
2024-04-20 11:46:00,SystemResetWarning,0835.3,5.01,000.00,018.9,018.4,000.0,027.4,020.7,022.5,0000.1,0009.38,0008.00,0007.79
2024-04-20 11:47:00,SystemResetWarning,0835.2,5.01,000.00,018.9,018.4,000.0,027.4,020.7,022.5,0000.9,0009.42,0008.03,0007.81
2024-04-20 11:48:00,SystemResetWarning,0835.3,5.01,000.00,018.9,018.4,000.0,027.4,020.7,022.5,0001.4,0009.43,0008.06,0007.86
2024-04-20 11:49:00,SystemResetWarning,0835.3,5.00,000.00,018.9,018.4,000.0,027.4,020.7,022.5,0000.9,0009.44,0008.10,0007.91
2024-04-20 11:50:00,SystemResetWarning,0835.3,4.99,000.00,018.9,018.4,000.0,027.4,020.7,022.5,0001.2,0009.50,0008.15,0007.94
2024-04-20 11:51:00,SystemResetWarning,0835.4,4.99,000.00,018.9,018.4,000.0,027.4,020.7,022.5,0002.1,0009.54,0008.17,0007.96
2024-04-20 11:52:00,SystemResetWarning,0835.4,5.00,000.00,018.9,018.4,000.0,027.4,020.7,022.5,0002.1,0009.53,0008.17,0007.96
2024-04-20 11:53:00,SystemResetWarning,0835.2,5.00,000.00,018.9,018.4,000.0,027.4,020.7,022.5,0002.3,0009.52,0008.17,0007.97
2024-04-20 11:54:00,SystemResetWarning,0835.3,5.00,000.00,018.9,018.4,000.0,027.4,020.7,022.5,0002.1,0009.54,0008.18,0007.97
2024-04-20 11:55:00,SystemResetWarning,0835.3,5.00,000.00,018.9,018.4,000.0,027.4,020.7,022.5,0001.2,0009.52,0008.17,0007.96
2024-04-20 11:56:00,SystemResetWarning,0835.3,5.00,000.00,018.9,018.4,000.0,027.4,020.7,022.5,0000.0,0009.50,0008.17,0007.96
2024-04-20 11:57:00,SystemResetWarning,0835.3,4.99,000.00,018.9,018.4,000.0,027.4,020.7,022.5,0000.0,0009.50,0008.17,0007.95
2024-04-20 11:58:00,SystemResetWarning,0835.3,5.00,000.00,018.9,018.4,000.0,027.4,020.7,022.5,0000.0,0009.45,0008.15,0007.93
2024-04-20 11:59:00,SystemResetWarning,0835.3,5.00,000.00,018.9,018.4,000.0,027.4,020.7,022.5,0000.0,0009.46,0008.10,0007.90
